Lorton, VA

9:44 AM EST on February 23, 2017 (GMT -0500)
Davison Army Air Field

Weather History for KDAA - November, 2013

Change the Weather History Date:

Thursday, November 28, 2013

  Actual Average Record
Temperature  
Mean Temperature 32 °F -  
Max Temperature 38 °F 53 °F 72 °F (2011)
Min Temperature 26 °F 32 °F 21 °F (1996)
Degree Days  
Heating Degree Days 33    
Moisture  
Dew Point 15 °F    
Average Humidity 54    
Maximum Humidity 88    
Minimum Humidity 35    
Precipitation  
Precipitation 0.00 in - - ()
Sea Level Pressure  
Sea Level Pressure 30.38 in    
Wind  
Wind Speed 10 mph (WNW)    
Max Wind Speed 18 mph    
Max Gust Speed 24 mph    
Visibility 10 miles    
Events      
Averages and records for this station are not official NWS values.
T = Trace of Precipitation, MM = Missing Value Source: NWS Daily Summary

Daily Weather History Graph

Daily Weather History Graph

Search for Another Location

Airport or City:

Trip Planner

Search our weather history database for the weather conditions in past years. The results will help you decide how hot, cold, wet, or windy it might be!

Date:

Astronomy

Nov. 28, 2013 Rise Set
Actual Time 7:05 AM EST 4:48 PM EST
Civil Twilight 6:35 AM EST 5:17 PM EST
Nautical Twilight 6:03 AM EST 5:50 PM EST
Astronomical Twilight 5:31 AM EST 6:22 PM EST
Moon 2:08 AM EST (11/28) 1:54 PM EST (11/28)
Length of Visible Light 10h 41m
Length of Day
9h 43m
Waning Crescent, 22% of the Moon is Illuminated
Nov 28
Waning Crescent
Dec 2
New
Dec 9
First Quarter
Dec 17
Full
Dec 25
Last Quarter

Hourly Weather History & Observations

Time (EST) Temp. Windchill Dew Point Humidity Pressure Visibility Wind Dir Wind Speed Gust Speed Precip Events Conditions
12:58 AM 29.8 °F 17.7 °F 10.4 °F 44% 30.12 in 10.0 mi WNW 18.4 mph 24.2 mph N/A   Mostly Cloudy
1:58 AM 29.8 °F 19.3 °F 10.6 °F 45% 30.17 in 10.0 mi WNW 13.8 mph 20.7 mph N/A   Mostly Cloudy
2:58 AM 29.5 °F 18.4 °F 11.3 °F 47% 30.18 in 10.0 mi WNW 15.0 mph 24.2 mph N/A   Clear
3:58 AM 29.1 °F 19.4 °F 11.3 °F 47% 30.22 in 10.0 mi NW 11.5 mph - N/A   Clear
4:58 AM 28.8 °F 25.0 °F 11.8 °F 49% 30.27 in 10.0 mi West 3.5 mph - N/A   Partly Cloudy
5:58 AM 27.7 °F 22.4 °F 12.7 °F 54% 30.30 in 10.0 mi Variable 4.6 mph - N/A   Clear
6:58 AM 27.9 °F 19.8 °F 12.0 °F 52% 30.32 in 10.0 mi NW 8.1 mph - N/A   Clear
7:58 AM 29.3 °F 19.6 °F 11.8 °F 48% 30.36 in 10.0 mi WNW 11.5 mph - N/A   Clear
8:58 AM 31.5 °F 20.5 °F 11.8 °F 44% 30.40 in 10.0 mi NW 16.1 mph 20.7 mph N/A   Clear
9:58 AM 33.1 °F 22.6 °F 12.0 °F 42% 30.41 in 10.0 mi NW 16.1 mph 23.0 mph N/A   Clear
10:58 AM 34.5 °F 26.7 °F 12.9 °F 41% 30.43 in 10.0 mi NW 10.4 mph - N/A   Clear
11:58 AM 36.0 °F 29.0 °F 13.1 °F 39% 30.41 in 10.0 mi WNW 9.2 mph - N/A   Clear
12:58 PM 37.9 °F 32.1 °F 12.7 °F 36% 30.40 in 10.0 mi NNW 8.1 mph - N/A   Scattered Clouds
1:58 PM 38.8 °F 31.2 °F 13.6 °F 36% 30.40 in 10.0 mi West 12.7 mph - N/A   Clear
2:58 PM 38.7 °F 35.2 °F 13.1 °F 35% 30.40 in 10.0 mi North 4.6 mph - N/A   Clear
3:58 PM 38.7 °F 35.2 °F 14.0 °F 37% 30.41 in 10.0 mi West 4.6 mph - N/A   Clear
4:58 PM 34.3 °F - 16.5 °F 48% 30.43 in 10.0 mi Calm Calm - N/A   Clear
5:58 PM 29.3 °F - 18.9 °F 65% 30.45 in 10.0 mi Calm Calm - N/A   Clear
6:58 PM 27.7 °F - 19.2 °F 71% 30.47 in 10.0 mi Calm Calm - N/A   Clear
7:58 PM 26.4 °F - 21.7 °F 82% 30.48 in 10.0 mi Calm Calm - N/A   Clear
8:58 PM 27.9 °F - 21.0 °F 75% 30.50 in 10.0 mi Calm Calm - N/A   Overcast
9:58 PM 28.4 °F - 23.7 °F 83% 30.50 in 10.0 mi Calm Calm - N/A   Overcast
10:58 PM 27.5 °F - 24.3 °F 88% 30.51 in 10.0 mi Calm Calm - N/A   Scattered Clouds
11:58 PM 27.0 °F - 23.9 °F 88% 30.51 in 10.0 mi Calm Calm - N/A   Overcast